EW7114 Weather Reports


Display with metric or nautical units.
time (UTC)temp
F
wind
direction
speed
MPH
gust
MPH
rain 1hr
in
rain 24hr
in
rain mn
in
humidity
%
barometer
mb
20190616190328 76 239 10.0 19.0 0.00 0.00 0.00 35 1006.4
20190616184709 76 241 10.0 17.0 0.00 0.00 0.00 33 1006.3
20190616183138 76 164 6.0 14.0 0.00 0.00 0.00 36 1006.3
20190616181655 75 244 8.0 14.0 0.00 0.00 0.00 34 1006.4
20190616180137 74 153 8.0 12.0 0.00 0.00 0.00 36 1006.4
20190616174616 75 210 6.0 12.0 0.00 0.00 0.00 39 1006.4
20190616173103 75 170 2.0 7.0 0.00 0.00 0.00 35 1006.3
20190616171610 74 130 3.0 7.0 0.00 0.00 0.00 42 1006.3
20190616170133 72 334 0.0 4.0 0.00 0.00 0.00 45 1006.4
20190616164601 72 19 1.0 5.0 0.00 0.00 0.00 48 1006.2
20190616163126 72 315 0.0 4.0 0.00 0.00 0.00 48 1006.3
20190616161559 72 268 0.0 1.0 0.00 0.00 0.00 47 1006.4
20190616160108 69 182 0.0 2.0 0.00 0.00 0.00 47 1006.5
20190616154610 67 254 0.0 0.0 0.00 0.00 0.00 51 1006.5
20190616153050 65 288 0.0 2.0 0.00 0.00 0.00 53 1006.8
20190616151603 63 305 0.0 1.0 0.00 0.00 0.00 59 1006.9
20190616150035 60 26 0.0 1.0 0.00 0.00 0.00 62 1006.9
20190616144534 58 333 0.0 2.0 0.00 0.00 0.00 67 1007.0
20190616143010 56 158 0.0 0.0 0.00 0.00 0.00 70 1007.1
20190616141505 54 158 0.0 0.0 0.00 0.00 0.00 75 1007.1
20190616140130 51 158 0.0 2.0 0.00 0.00 0.00 80 1007.2
20190616134612 49 156 0.0 1.0 0.00 0.00 0.00 82 1007.3
20190616133237 47 154 1.0 3.0 0.00 0.00 0.00 82 1007.3
20190616131718 47 155 1.0 3.0 0.00 0.00 0.00 85 1007.1
20190616130250 45 350 0.0 2.0 0.00 0.00 0.00 87 1007.0
20190616124619 43 219 0.0 3.0 0.00 0.00 0.00 87 1007.0
20190616123152 43 163 0.0 3.0 0.00 0.00 0.00 88 1006.6
20190616121614 41 203 0.0 3.0 0.00 0.00 0.00 86 1006.7
20190616120202 42 203 1.0 3.0 0.00 0.00 0.00 84 1006.5
20190616114616 44 203 0.0 1.0 0.00 0.00 0.00 86 1006.3
20190616113116 44 203 0.0 0.0 0.00 0.00 0.00 86 1006.2
20190616111558 44 203 0.0 2.0 0.00 0.00 0.00 85 1006.2
20190616110104 43 203 0.0 0.0 0.00 0.00 0.00 84 1006.2
20190616104546 43 203 0.0 0.0 0.00 0.00 0.00 80 1006.1
20190616103039 44 203 0.0 2.0 0.00 0.00 0.00 76 1006.1
20190616101559 48 203 0.0 2.0 0.00 0.00 0.00 76 1006.0
20190616100103 48 225 0.0 2.0 0.00 0.00 0.00 79 1006.1
20190616094550 48 225 0.0 1.0 0.00 0.00 0.00 81 1006.0
20190616093037 48 225 0.0 2.0 0.00 0.00 0.00 83 1006.1
20190616091534 48 225 0.0 1.0 0.00 0.00 0.00 81 1006.2
20190616090036 48 225 0.0 2.0 0.00 0.00 0.00 82 1006.2
20190616084537 45 225 0.0 0.0 0.00 0.00 0.00 81 1006.2
20190616083034 46 225 0.0 0.0 0.00 0.00 0.00 81 1006.2
20190616081547 48 225 0.0 2.0 0.00 0.00 0.00 79 1006.2
20190616080010 50 236 0.0 0.0 0.00 0.00 0.00 82 1006.3
20190616074510 49 236 1.0 3.0 0.00 0.00 0.00 83 1006.3
20190616073016 48 154 0.0 0.0 0.00 0.00 0.00 77 1006.5
20190616071754 49 154 0.0 0.0 0.00 0.00 0.00 78 1006.5
20190616070219 49 154 0.0 2.0 0.00 0.00 0.00 79 1006.5
20190616064648 49 154 3.0 5.0 0.00 0.00 0.00 76 1006.5
20190616063135 48 154 0.0 5.0 0.00 0.00 0.00 74 1006.5
20190616061643 52 315 0.0 0.0 0.00 0.00 0.00 70 1006.3
20190616060110 53 315 0.0 0.0 0.00 0.00 0.00 73 1006.3
20190616054617 53 315 0.0 0.0 0.00 0.00 0.00 68 1006.5
20190616053204 54 315 0.0 0.0 0.00 0.00 0.00 65 1006.4
20190616051615 54 315 0.0 0.0 0.00 0.00 0.00 67 1006.4
20190616050134 55 315 1.0 6.0 0.00 0.00 0.00 65 1006.5
20190616044627 56 63 1.0 4.0 0.00 0.00 0.00 61 1006.3
20190616043112 57 138 0.0 0.0 0.00 0.00 0.00 58 1006.2
20190616041657 57 138 1.0 3.0 0.00 0.00 0.00 58 1006.0
20190616040149 58 138 2.0 5.0 0.00 0.00 0.00 57 1005.9
20190616034702 61 92 3.0 7.0 0.00 0.00 0.00 53 1005.7
20190616033235 63 300 1.0 4.0 0.00 0.00 0.00 53 1005.5
20190616031659 63 297 2.0 5.0 0.00 0.00 0.00 52 1005.3
20190616030130 65 296 3.0 5.0 0.00 0.00 0.00 49 1005.4
20190616024623 68 302 3.0 7.0 0.00 0.00 0.00 47 1005.2
20190616023123 73 292 3.0 7.0 0.00 0.00 0.00 42 1005.3
20190616021652 75 296 4.0 6.0 0.00 0.00 0.00 36 1005.3
20190616020107 78 5 1.0 5.0 0.00 0.00 0.00 34 1005.2
20190616014622 79 5 3.0 6.0 0.00 0.00 0.00 31 1005.1
20190616013145 79 12 5.0 11.0 0.00 0.00 0.00 29 1004.9
20190616011604 79 5 8.0 13.0 0.00 0.00 0.00 29 1004.8
20190616010142 79 24 7.0 13.0 0.00 0.00 0.00 30 1004.7
20190616004607 80 5 7.0 13.0 0.00 0.00 0.00 30 1004.9
20190616003237 80 350 7.0 16.0 0.00 0.00 0.00 30 1005.0
20190616001557 80 317 7.0 14.0 0.00 0.00 0.00 22 1005.2
20190616000200 81 12 1.0 3.0 0.00 0.00 0.00 25 1005.4
20190615234613 79 12 2.0 4.0 0.00 0.00 0.00 28 1005.4
20190615233131 79 24 4.0 8.0 0.00 0.00 0.00 27 1005.5
20190615231553 80 325 6.0 10.0 0.00 0.00 0.00 28 1005.8
20190615230046 78 341 3.0 5.0 0.00 0.00 0.00 30 1005.9
20190615224525 80 350 4.0 8.0 0.00 0.00 0.00 28 1006.0
20190615223037 79 25 3.0 10.0 0.00 0.00 0.00 30 1006.1
20190615221603 80 348 4.0 8.0 0.00 0.00 0.00 27 1006.3
20190615220038 79 123 4.0 10.0 0.00 0.00 0.00 29 1006.4
20190615214612 77 86 4.0 11.0 0.00 0.00 0.00 30 1006.6
20190615213016 77 69 10.0 19.0 0.00 0.00 0.00 34 1006.6
20190615211519 77 67 11.0 18.0 0.00 0.00 0.00 36 1006.7
20190615210046 76 54 13.0 19.0 0.00 0.00 0.00 38 1006.8
20190615204531 74 46 7.0 17.0 0.00 0.00 0.00 41 1007.0
20190615203008 75 355 13.0 17.0 0.00 0.00 0.00 39 1007.0
20190615201508 75 305 9.0 14.0 0.00 0.00 0.00 39 1007.0
20190615200006 76 223 2.0 7.0 0.00 0.00 0.00 34 1006.9
20190615194517 76 44 3.0 6.0 0.00 0.00 0.00 33 1007.1
20190615193009 76 265 8.0 11.0 0.00 0.00 0.00 34 1007.1
20190615191505 78 322 3.0 8.0 0.00 0.00 0.00 29 1007.1